Weather History for KMTW - February, 2012

Change the Weather History Date:

Saturday, February 18, 2012

  Actual Average Record
Temperature  
Mean Temperature 28 °F -  
Max Temperature 32 °F 33 °F 50 °F (1981)
Min Temperature 23 °F 18 °F -15 °F (1979)
Degree Days  
Heating Degree Days 38    
Moisture  
Dew Point 18 °F    
Average Humidity 66    
Maximum Humidity 80    
Minimum Humidity 51    
Precipitation  
Precipitation 0.00 in - - ()
Sea Level Pressure  
Sea Level Pressure 30.16 in    
Wind  
Wind Speed 11 mph (NW)    
Max Wind Speed 17 mph    
Max Gust Speed 25 mph    
Visibility 10 miles    
Events      
Averages and records for this station are not official NWS values.
T = Trace of Precipitation, MM = Missing Value Source: NWS Daily Summary

Daily Weather History Graph

Daily Weather History Graph

Search for Another Location

Airport or City:

Trip Planner

Search our weather history database for the weather conditions in past years. The results will help you decide how hot, cold, wet, or windy it might be!

Date:

Astronomy

Feb. 18, 2012 Rise Set
Actual Time 6:46 AM CST 5:23 PM CST
Civil Twilight 6:16 AM CST 5:53 PM CST
Nautical Twilight 5:43 AM CST 6:27 PM CST
Astronomical Twilight 5:09 AM CST 7:00 PM CST
Moon 4:31 AM CST (2/18) 2:15 PM CST (2/18)
Length of Visible Light 11h 36m
Length of Day
10h 37m
Waning Crescent, 11% of the Moon is Illuminated
Feb 18
Waning Crescent
Feb 21
New
Feb 29
First Quarter
Mar 8
Full
Mar 14
Last Quarter

Hourly Weather History & Observations

Time (CST) Temp. Windchill Dew Point Humidity Pressure Visibility Wind Dir Wind Speed Gust Speed Precip Events Conditions
12:15 AM 28.4 °F 16.2 °F 23.0 °F 80% 30.00 in 7.0 mi North 17.3 mph 25.3 mph N/A   Overcast
12:35 AM 28.4 °F 17.0 °F 23.0 °F 80% 30.01 in 10.0 mi North 15.0 mph 20.7 mph N/A   Mostly Cloudy
12:55 AM 28.4 °F 17.0 °F 21.2 °F 74% 30.02 in 10.0 mi NNW 15.0 mph 18.4 mph N/A   Overcast
1:15 AM 28.4 °F 17.5 °F 21.2 °F 74% 30.02 in 10.0 mi North 13.8 mph - N/A   Overcast
1:35 AM 28.4 °F 17.5 °F 21.2 °F 74% 30.03 in 10.0 mi NNW 13.8 mph 19.6 mph N/A   Overcast
1:55 AM 26.6 °F 14.7 °F 21.2 °F 80% 30.04 in 8.0 mi NNW 15.0 mph 19.6 mph N/A   Overcast
2:15 AM 26.6 °F 16.2 °F 21.2 °F 80% 30.05 in 5.0 mi North 11.5 mph - N/A   Overcast
2:35 AM 26.6 °F 16.8 °F 21.2 °F 80% 30.05 in 2.0 mi NNW 10.4 mph - N/A   Overcast
2:55 AM 26.6 °F 16.8 °F 21.2 °F 80% 30.06 in 10.0 mi NNW 10.4 mph - N/A   Overcast
3:15 AM 26.6 °F 16.2 °F 19.4 °F 74% 30.06 in 10.0 mi NNW 11.5 mph - N/A   Overcast
3:35 AM 26.6 °F 16.8 °F 21.2 °F 80% 30.07 in 10.0 mi NNW 10.4 mph - N/A   Overcast
3:55 AM 26.6 °F 17.5 °F 19.4 °F 74% 30.08 in 10.0 mi NNW 9.2 mph - N/A   Overcast
4:15 AM 26.6 °F 16.8 °F 19.4 °F 74% 30.08 in 10.0 mi NNW 10.4 mph - N/A   Overcast
4:35 AM 26.6 °F 18.2 °F 19.4 °F 74% 30.09 in 10.0 mi NNW 8.1 mph - N/A   Overcast
4:55 AM 24.8 °F 15.3 °F 17.6 °F 74% 30.10 in 10.0 mi NW 9.2 mph - N/A   Overcast
5:15 AM 24.8 °F 16.1 °F 19.4 °F 80% 30.11 in 10.0 mi NW 8.1 mph - N/A   Overcast
5:35 AM 24.8 °F 15.3 °F 17.6 °F 74% 30.11 in 10.0 mi NW 9.2 mph - N/A   Overcast
5:55 AM 26.6 °F 18.2 °F 19.4 °F 74% 30.11 in 10.0 mi NW 8.1 mph - N/A   Overcast
6:15 AM 26.6 °F 17.5 °F 19.4 °F 74% 30.12 in 10.0 mi WNW 9.2 mph - N/A   Overcast
6:35 AM 26.6 °F 18.2 °F 19.4 °F 74% 30.13 in 10.0 mi WNW 8.1 mph - N/A   Overcast
6:55 AM 26.6 °F 17.5 °F 19.4 °F 74% 30.13 in 10.0 mi WNW 9.2 mph - N/A   Overcast
7:15 AM 26.6 °F 19.1 °F 19.4 °F 74% 30.14 in 10.0 mi NW 6.9 mph - N/A   Overcast
7:35 AM 24.8 °F 16.1 °F 17.6 °F 74% 30.15 in 10.0 mi WNW 8.1 mph - N/A   Scattered Clouds
8:15 AM 26.6 °F 16.2 °F 19.4 °F 74% 30.16 in 10.0 mi NW 11.5 mph - N/A   Scattered Clouds
8:35 AM 28.4 °F 20.4 °F 17.6 °F 64% 30.17 in 10.0 mi NW 8.1 mph 16.1 mph N/A   Clear
9:15 AM 28.4 °F 19.1 °F 17.6 °F 64% 30.18 in 10.0 mi NNW 10.4 mph - N/A   Overcast
9:35 AM 28.4 °F 17.5 °F 17.6 °F 64% 30.19 in 10.0 mi NNW 13.8 mph - N/A   Mostly Cloudy
9:55 AM 28.4 °F 18.0 °F 17.6 °F 64% 30.19 in 10.0 mi NNW 12.7 mph 18.4 mph N/A   Mostly Cloudy
10:35 AM 28.4 °F 18.5 °F 15.8 °F 59% 30.20 in 10.0 mi NNW 11.5 mph 18.4 mph N/A   Mostly Cloudy
10:55 AM 28.4 °F 20.4 °F 15.8 °F 59% 30.21 in 10.0 mi North 8.1 mph - N/A   Overcast
11:15 AM 30.2 °F 19.3 °F 15.8 °F 55% 30.22 in 10.0 mi NNW 15.0 mph 19.6 mph N/A   Overcast
11:35 AM 30.2 °F 20.2 °F 15.8 °F 55% 30.22 in 10.0 mi WNW 12.7 mph - N/A   Overcast
12:15 PM 30.2 °F 20.2 °F 15.8 °F 55% 30.22 in 10.0 mi NNW 12.7 mph 16.1 mph N/A   Overcast
12:35 PM 30.2 °F 21.3 °F 15.8 °F 55% 30.22 in 10.0 mi WNW 10.4 mph 16.1 mph N/A   Overcast
12:55 PM 30.2 °F 22.6 °F 15.8 °F 55% 30.22 in 10.0 mi NNW 8.1 mph - N/A   Overcast
1:15 PM 30.2 °F 21.9 °F 15.8 °F 55% 30.22 in 10.0 mi WNW 9.2 mph - N/A   Overcast
1:35 PM 30.2 °F 22.6 °F 15.8 °F 55% 30.21 in 10.0 mi West 8.1 mph - N/A   Overcast
1:55 PM 30.2 °F 21.9 °F 15.8 °F 55% 30.21 in 10.0 mi WNW 9.2 mph - N/A   Overcast
2:15 PM 30.2 °F 21.3 °F 15.8 °F 55% 30.21 in 10.0 mi West 10.4 mph - N/A   Overcast
2:35 PM 30.2 °F 20.8 °F 15.8 °F 55% 30.21 in 10.0 mi WNW 11.5 mph - N/A   Overcast
2:55 PM 32.0 °F 24.2 °F 15.8 °F 51% 30.21 in 10.0 mi NW 9.2 mph - N/A   Overcast
3:15 PM 30.2 °F 23.4 °F 15.8 °F 55% 30.20 in 10.0 mi NW 6.9 mph - N/A   Mostly Cloudy
3:35 PM 30.2 °F 22.6 °F 15.8 °F 55% 30.20 in 10.0 mi NNW 8.1 mph - N/A   Scattered Clouds
3:55 PM 32.0 °F 24.2 °F 17.6 °F 55% 30.21 in 10.0 mi WNW 9.2 mph - N/A   Mostly Cloudy
4:15 PM 32.0 °F 28.7 °F 15.8 °F 51% 30.21 in 10.0 mi WNW 3.5 mph - N/A   Partly Cloudy
4:35 PM 32.0 °F 27.5 °F 17.6 °F 55% 30.21 in 10.0 mi West 4.6 mph - N/A   Clear
4:55 PM 30.2 °F 25.4 °F 15.8 °F 55% 30.21 in 10.0 mi NNW 4.6 mph - N/A   Clear
5:15 PM 30.2 °F 26.7 °F 15.8 °F 55% 30.22 in 10.0 mi NNW 3.5 mph - N/A   Clear
5:35 PM 30.2 °F - 15.8 °F 55% 30.22 in 10.0 mi Calm Calm - N/A   Clear
5:55 PM 28.4 °F - 15.8 °F 59% 30.22 in 10.0 mi Calm Calm - N/A   Clear
6:15 PM 28.4 °F - 15.8 °F 59% 30.22 in 10.0 mi Calm Calm - N/A   Clear
6:35 PM 26.6 °F - 15.8 °F 64% 30.22 in 10.0 mi Calm Calm - N/A   Clear
6:55 PM 24.8 °F - 15.8 °F 69% 30.22 in 10.0 mi Calm Calm - N/A   Clear
7:15 PM 24.8 °F - 15.8 °F 69% 30.23 in 10.0 mi Calm Calm - N/A   Clear
7:35 PM 24.8 °F - 15.8 °F 69% 30.23 in 10.0 mi Calm Calm - N/A   Clear
8:15 PM 24.8 °F - 15.8 °F 69% 30.22 in 10.0 mi Calm Calm - N/A   Clear
8:35 PM 23.0 °F - 17.6 °F 80% 30.22 in 10.0 mi Calm Calm - N/A   Clear
8:55 PM 24.8 °F - 17.6 °F 74% 30.22 in 10.0 mi Calm Calm - N/A   Clear
9:15 PM 23.0 °F - 15.8 °F 74% 30.22 in 10.0 mi Calm Calm - N/A   Clear
9:35 PM 21.2 °F 16.4 °F 15.8 °F 80% 30.22 in 10.0 mi SW 3.5 mph - N/A   Clear
10:15 PM 21.2 °F - 15.8 °F 80% 30.22 in 10.0 mi Calm Calm - N/A   Clear
10:35 PM 21.2 °F 16.4 °F 15.8 °F 80% 30.22 in 10.0 mi SW 3.5 mph - N/A   Clear
10:55 PM 19.4 °F 14.3 °F 15.8 °F 86% 30.22 in 10.0 mi SW 3.5 mph - N/A   Clear
11:15 PM 21.2 °F - 15.8 °F 80% 30.21 in 10.0 mi Calm Calm - N/A   Clear
11:35 PM 21.2 °F 16.4 °F 15.8 °F 80% 30.21 in 10.0 mi WSW 3.5 mph - N/A   Clear
11:55 PM 19.4 °F - 14.0 °F 80% 30.22 in 10.0 mi Calm Calm - N/A   Clear